[[{"header":{"parameterUnit":"m.s-1","parameterCategory":1,"la1":30.2991,"la2":30.254,"lo1":-89.0895,"lo2":-89.0444,"dy":0.0017,"dx":0.0017,"nx":28,"ny":28,"refTime":"2024-06-10T03:00:00:Z","depth":0,"parameterNumber":2,"parameterNumberName":"U-component_of_WINDS"},"data":[0,0,0,0,0,0,0,0,0,0,0,0,0,0,0,0,0,0,0,0,0,0,0,0,0,0,0,0,0,0,0,0,0,0,0,0,0,0,0,0,0,0,0,0,0,0,0,0,0,0,0,0,0,0,0,0,0,0,0.027,0.0271,0,0.0361,0.0362,0.0363,0.0402,0.0402,0.0402,0.0402,0.0493,0.0495,0.0498,0,0,0,0,0,0,0,0,0,0,0,0,0,0.0128,0.013,0.027,0.0271,0.0272,0.0361,0.0362,0.0363,0.0402,0.0402,0.0402,0.0402,0.0492,0.0495,0.0498,0,0,0,0,0,0,0,0,0,0,0,0,0,0.0201,0.0131,0.0269,0.0302,0.0306,0.0361,0.0362,0.0364,0.0402,0.0402,0.0402,0.0402,0.0491,0.0495,0.0499,0.0527,0,0,0.051,0.0512,0,0,0,0,0,0,0,0,0.0197,0.0206,0.0296,0.03,0.0304,0.037,0.0346,0.0418,0.0402,0.0365,0.0402,0.0401,0.0452,0.0459,0.0477,0.0531,0.0535,0.0511,0.0513,0.0515,0.0516,0,0,0,0,0,0,0,0.0192,0.0203,0.0306,0.0297,0.0302,0.0312,0.0322,0.036,0.0409,0.0369,0.0372,0.0382,0.0454,0.0473,0.0479,0.0536,0.0511,0.0514,0.0516,0.0518,0.0622,0.0622,0,0,0,0,0,0,0.0182,0.0198,0.0303,0.0308,0.0249,0.0315,0.0326,0.0349,0.0409,0.0417,0.0382,0.0384,0.0466,0.0474,0.0482,0.0521,0.0515,0.0518,0.052,0.0621,0.0622,0.0622,0,0,0,0,0,0,0.0178,0.0191,0.0299,0.0254,0.0269,0.0317,0.0343,0.0351,0.037,0.0419,0.0428,0.0392,0.0466,0.0477,0.0516,0.0525,0.052,0.0523,0.0621,0.0622,0.0622,0.0598,0,0,0,0,0,0,0.0174,0.0189,0.02,0.0254,0.0271,0.0332,0.0343,0.0353,0.0377,0.0379,0.0431,0.0439,0.0467,0.051,0.052,0.053,0.0526,0.062,0.0621,0.0622,0.0599,0.0598,0.0598,0,0,0,0,0,0.0169,0.0189,0.0201,0.0213,0.0286,0.0332,0.0341,0.0374,0.0377,0.0389,0.0421,0.0437,0.0523,0.0514,0.0525,0.0537,0.062,0.0621,0.0622,0.0599,0.0598,0.0598,0,0,0,0,0,0,0.0133,0.0196,0.021,0.0248,0.0285,0.0338,0.0354,0.0372,0.0408,0.0409,0.0447,0.0458,0.0495,0.052,0.0509,0.0569,0.0573,0.0576,0.0551,0.0551,0.0551,0.0544,0.053,0,0,0,0,0,0.013,0.0162,0.0216,0.0244,0.0262,0.0305,0.0326,0.0348,0.0387,0.0402,0.0437,0.0474,0.0509,0.0531,0.0566,0.0603,0.0615,0.0616,0.0616,0.0615,0.0618,0.0641,0.0642,0.0626,0.0626,0.0626,0,0,0.0123,0.0161,0.0179,0.0238,0.0269,0.0301,0.0317,0.0351,0.0376,0.0407,0.0447,0.0474,0.0518,0.0556,0.0575,0.0578,0.0625,0.0616,0.0616,0.0618,0.0642,0.0643,0.0645,0.0627,0.0626,0.0626,0,0,0.0127,0.0159,0.0188,0.0219,0.0266,0.0295,0.0302,0.0354,0.0374,0.0415,0.044,0.047,0.0529,0.056,0.0584,0.0603,0.062,0.0613,0.0611,0.0633,0.0634,0.0636,0.0644,0.0646,0.0615,0.0615,0.0615,0,0.0112,0.0163,0.0199,0.0233,0.0258,0.029,0.032,0.0348,0.0403,0.0421,0.0424,0.0501,0.0532,0.058,0.0585,0.0602,0.0612,0.0607,0.0631,0.0633,0.0635,0.0643,0.0646,0.0614,0.0615,0.0615,0.0615,0,0.0143,0.0178,0.0196,0.0251,0.0278,0.0309,0.035,0.0374,0.0395,0.0423,0.0466,0.0505,0.055,0.0563,0.0582,0.0614,0.0615,0.0624,0.0629,0.0635,0.0644,0.0647,0.0613,0.0613,0.0614,0.0614,0,0,0.0126,0.0203,0.0209,0.0235,0.0291,0.0319,0.0352,0.0397,0.0417,0.0455,0.0484,0.0535,0.0546,0.0572,0.0596,0.0615,0.063,0.0623,0.0624,0.0624,0.0669,0.0662,0.0665,0.0642,0.0643,0.0643,0.0666,0,0.0138,0.02,0.0235,0.0282,0.0315,0.0348,0.0377,0.0414,0.0443,0.0476,0.0507,0.0543,0.0553,0.057,0.059,0.0624,0.064,0.0623,0.067,0.0671,0.0659,0.0669,0.0662,0.0681,0.0669,0.067,0.067,0,0.0161,0.02,0.0251,0.0306,0.0321,0.0347,0.0392,0.0423,0.0467,0.0487,0.0518,0.0542,0.0579,0.0581,0.0633,0.0621,0.0643,0.0663,0.0664,0.067,0.0671,0.0676,0.0688,0.0691,0.0676,0.0675,0.0675,0,0.0144,0.021,0.025,0.0271,0.0336,0.0353,0.0381,0.0424,0.045,0.049,0.0507,0.055,0.0574,0.0607,0.0643,0.0641,0.0692,0.0697,0.071,0.0709,0.0719,0.0718,0.0735,0.0732,0.0732,0.0732,0.0732,0,0.0155,0.0185,0.0244,0.0268,0.0303,0.0344,0.0377,0.0407,0.0447,0.0478,0.0508,0.0536,0.0582,0.0616,0.0644,0.0684,0.0694,0.0712,0.0719,0.0709,0.0707,0.0724,0.0724,0.0732,0.0732,0.0732,0.0732,0,0.0142,0.0183,0.0229,0.0287,0.0302,0.0326,0.0375,0.0401,0.0432,0.0471,0.0482,0.0531,0.0573,0.0613,0.0668,0.0687,0.0728,0.0737,0.0714,0.0718,0.0729,0.0728,0.0758,0.0765,0.0756,0.0756,0.0756,0,0.0147,0.0171,0.0233,0.0256,0.0284,0.0321,0.0349,0.039,0.0417,0.047,0.0489,0.0534,0.0573,0.0639,0.0679,0.0723,0.0733,0.0741,0.074,0.073,0.0735,0.0733,0.0737,0.074,0.074,0.074,0.074,0,0.0151,0.017,0.0209,0.0255,0.0287,0.0325,0.0364,0.0382,0.0431,0.046,0.0504,0.0534,0.0593,0.0638,0.0686,0.0715,0.0736,0.074,0.0746,0.0736,0.0723,0.0732,0.0713,0.0739,0.0739,0.0739,0.0739,0.0739,0.0147,0.0172,0.022,0.0262,0.0296,0.0333,0.036,0.0396,0.0434,0.0486,0.0508,0.0553,0.0599,0.0667,0.0696,0.0732,0.0737,0.0744,0.0746,0.0748,0.0747,0.0717,0.0741,0.0741,0.0741,0.0741,0.0741,0,0.0154,0.0187,0.0226,0.0281,0.0315,0.0333,0.0378,0.0405,0.0446,0.0487,0.0525,0.0577,0.0621,0.0666,0.0713,0.0734,0.0745,0.0745,0.0744,0.0751,0.0739,0.0731,0.0735,0.0735,0.0735,0.0735,0.0735,0.0735,0.0161,0.0204,0.023,0.029,0.0323,0.0369,0.0393,0.0428,0.0461,0.0519,0.0556,0.0586,0.0629,0.068,0.0722,0.0734,0.075,0.0748,0.0763,0.0751,0.0751,0.0751,0.0743,0.0751,0.0751,0.0771,0.0772,0.0772]},{"header":{"parameterUnit":"m.s-1","parameterCategory":1,"la1":30.2991,"la2":30.254,"lo1":-89.0895,"lo2":-89.0444,"dy":0.0017,"dx":0.0017,"nx":28,"ny":28,"refTime":"2024-06-10T03:00:00:Z","depth":0,"parameterNumber":3,"parameterNumberName":"V-component_of_WINDS"},"data":[0,0,0,0,0,0,0,0,0,0,0,0,0,0,0,0,0,0,0,0,0,0,0,0,0,0,0,0,0,0,0,0,0,0,0,0,0,0,0,0,0,0,0,0,0,0,0,0,0,0,0,0,0,0,0,0,0,0,-2.2517,-2.2517,0,-2.2564,-2.2565,-2.2565,-2.2601,-2.2601,-2.2602,-2.2602,-2.2646,-2.2647,-2.2648,0,0,0,0,0,0,0,0,0,0,0,0,0,-2.2453,-2.2454,-2.2516,-2.2517,-2.2518,-2.2564,-2.2565,-2.2565,-2.2601,-2.2601,-2.2602,-2.2602,-2.2646,-2.2647,-2.2648,0,0,0,0,0,0,0,0,0,0,0,0,0,-2.2488,-2.2454,-2.2516,-2.2541,-2.2544,-2.2564,-2.2565,-2.2565,-2.2601,-2.2601,-2.2602,-2.2602,-2.2646,-2.2647,-2.2648,-2.2646,0,0,-2.2652,-2.2653,0,0,0,0,0,0,0,0,-2.2486,-2.249,-2.2537,-2.254,-2.2543,-2.2577,-2.2558,-2.2592,-2.2601,-2.2579,-2.2602,-2.2603,-2.2623,-2.2626,-2.2633,-2.2648,-2.265,-2.2652,-2.2653,-2.2654,-2.2654,0,0,0,0,0,0,0,-2.2484,-2.2488,-2.2535,-2.2538,-2.2541,-2.2549,-2.2554,-2.2565,-2.2597,-2.2581,-2.2584,-2.2589,-2.2624,-2.2632,-2.2635,-2.265,-2.2652,-2.2653,-2.2654,-2.2655,-2.2664,-2.2664,0,0,0,0,0,0,-2.2478,-2.2486,-2.2534,-2.2537,-2.2515,-2.2549,-2.2556,-2.2566,-2.2597,-2.2603,-2.2589,-2.2591,-2.263,-2.2633,-2.2636,-2.2635,-2.2654,-2.2655,-2.2655,-2.2665,-2.2664,-2.2663,0,0,0,0,0,0,-2.2476,-2.2482,-2.2532,-2.2512,-2.2519,-2.255,-2.2561,-2.2566,-2.2574,-2.2603,-2.2609,-2.2591,-2.263,-2.2635,-2.2643,-2.2637,-2.2655,-2.2656,-2.2665,-2.2664,-2.2664,-2.2632,0,0,0,0,0,0,-2.2474,-2.2481,-2.2481,-2.2512,-2.252,-2.2539,-2.256,-2.2567,-2.2577,-2.258,-2.2607,-2.2612,-2.2631,-2.2641,-2.2645,-2.2639,-2.2657,-2.2666,-2.2665,-2.2664,-2.2634,-2.263,-2.2627,0,0,0,0,0,-2.2472,-2.247,-2.2481,-2.2487,-2.2521,-2.2538,-2.2543,-2.2566,-2.2576,-2.2576,-2.2595,-2.2611,-2.2637,-2.2642,-2.2646,-2.264,-2.2666,-2.2665,-2.2664,-2.2635,-2.2631,-2.2627,0,0,0,0,0,0,-2.2436,-2.2474,-2.2487,-2.2495,-2.2513,-2.2545,-2.2545,-2.2561,-2.2576,-2.2578,-2.2605,-2.2611,-2.2616,-2.263,-2.2634,-2.2639,-2.2654,-2.2653,-2.263,-2.2627,-2.2623,-2.2619,-2.2659,0,0,0,0,0,-2.2429,-2.2441,-2.2473,-2.2477,-2.2486,-2.2514,-2.2522,-2.2539,-2.2558,-2.2566,-2.2585,-2.2602,-2.2614,-2.2621,-2.2634,-2.2636,-2.2642,-2.2635,-2.2631,-2.2629,-2.2627,-2.2628,-2.2625,-2.266,-2.266,-2.266,0,0,-2.2414,-2.2437,-2.2442,-2.247,-2.2487,-2.2497,-2.252,-2.253,-2.2538,-2.2567,-2.2576,-2.2591,-2.2612,-2.2617,-2.262,-2.2628,-2.2619,-2.2627,-2.2625,-2.2625,-2.2627,-2.2623,-2.262,-2.2659,-2.2659,-2.2659,0,0,-2.2393,-2.2412,-2.2417,-2.2433,-2.2458,-2.2476,-2.2477,-2.2506,-2.2518,-2.2528,-2.255,-2.2559,-2.2579,-2.2593,-2.2603,-2.2587,-2.2602,-2.259,-2.2573,-2.2573,-2.257,-2.2568,-2.2561,-2.2558,-2.2589,-2.2589,-2.2589,0,-2.2371,-2.2389,-2.2417,-2.2426,-2.2437,-2.2466,-2.247,-2.2483,-2.251,-2.2516,-2.2526,-2.2552,-2.2568,-2.2576,-2.2573,-2.258,-2.2581,-2.2586,-2.2569,-2.2567,-2.2565,-2.2558,-2.2556,-2.2588,-2.2588,-2.2588,-2.2588,0,-2.236,-2.2372,-2.2373,-2.24,-2.2411,-2.2418,-2.2445,-2.2453,-2.2469,-2.2486,-2.2495,-2.2516,-2.2533,-2.2537,-2.2552,-2.2547,-2.2551,-2.2564,-2.2579,-2.256,-2.2554,-2.2552,-2.2585,-2.2586,-2.2586,-2.2587,0,0,-2.2316,-2.2359,-2.2358,-2.2371,-2.24,-2.2409,-2.2417,-2.2435,-2.2441,-2.2459,-2.2464,-2.2481,-2.2494,-2.2505,-2.2522,-2.2523,-2.2507,-2.2536,-2.2537,-2.2528,-2.2501,-2.249,-2.2486,-2.2518,-2.2518,-2.2518,-2.2499,0,-2.2297,-2.2314,-2.2339,-2.2346,-2.2357,-2.2385,-2.2391,-2.2409,-2.2426,-2.2436,-2.2454,-2.2465,-2.2482,-2.2488,-2.2491,-2.2509,-2.2502,-2.2511,-2.2522,-2.2522,-2.2514,-2.2484,-2.2472,-2.2453,-2.2497,-2.2497,-2.2496,0,-2.2278,-2.2296,-2.2304,-2.2333,-2.2339,-2.2344,-2.2363,-2.2373,-2.2394,-2.2406,-2.2418,-2.2437,-2.2445,-2.246,-2.247,-2.2475,-2.2481,-2.2491,-2.2491,-2.2491,-2.2506,-2.2481,-2.2448,-2.2444,-2.2494,-2.2494,-2.2494,0,-2.2243,-2.2269,-2.2277,-2.2287,-2.2321,-2.2324,-2.2338,-2.236,-2.2369,-2.2385,-2.2391,-2.2407,-2.2415,-2.2427,-2.2449,-2.2458,-2.2456,-2.2473,-2.2465,-2.2464,-2.2461,-2.2461,-2.2426,-2.2468,-2.2468,-2.2468,-2.2468,0,-2.2219,-2.2222,-2.2262,-2.2266,-2.2271,-2.23,-2.2303,-2.232,-2.2339,-2.2346,-2.2372,-2.2378,-2.2408,-2.2417,-2.2434,-2.2439,-2.2443,-2.2452,-2.2456,-2.2448,-2.2447,-2.2451,-2.2452,-2.2468,-2.2468,-2.2468,-2.2468,0,-2.2179,-2.2206,-2.2216,-2.2249,-2.2257,-2.2259,-2.2285,-2.229,-2.2309,-2.2318,-2.2322,-2.235,-2.2363,-2.2387,-2.2405,-2.2417,-2.2417,-2.2426,-2.241,-2.2413,-2.2402,-2.2402,-2.2367,-2.2364,-2.241,-2.2409,-2.2409,0,-2.2161,-2.2164,-2.2198,-2.2205,-2.2219,-2.2231,-2.2241,-2.2269,-2.2278,-2.2302,-2.2304,-2.2319,-2.2332,-2.235,-2.2371,-2.2385,-2.2393,-2.238,-2.2395,-2.2387,-2.2391,-2.2389,-2.2389,-2.2376,-2.2375,-2.2375,-2.2375,0,-2.2125,-2.2138,-2.2153,-2.2172,-2.2183,-2.2199,-2.2216,-2.222,-2.2253,-2.2261,-2.2275,-2.2285,-2.2305,-2.2318,-2.2336,-2.2349,-2.2366,-2.237,-2.2369,-2.236,-2.235,-2.2353,-2.2399,-2.237,-2.2371,-2.2371,-2.2371,-2.2371,-2.2094,-2.2099,-2.2123,-2.2138,-2.2154,-2.2169,-2.2175,-2.2196,-2.2208,-2.2227,-2.2243,-2.2255,-2.2275,-2.2301,-2.2313,-2.2322,-2.233,-2.2328,-2.2327,-2.2326,-2.2322,-2.235,-2.2325,-2.2325,-2.2325,-2.2325,-2.2326,0,-2.2058,-2.2076,-2.2089,-2.2113,-2.2124,-2.2143,-2.2162,-2.217,-2.2181,-2.2199,-2.2212,-2.2227,-2.224,-2.2263,-2.2278,-2.2281,-2.2289,-2.2283,-2.2282,-2.2285,-2.2314,-2.2313,-2.2276,-2.2276,-2.2276,-2.2276,-2.2276,-2.2276,-2.2041,-2.2049,-2.2065,-2.2081,-2.2098,-2.2111,-2.212,-2.2134,-2.2149,-2.2165,-2.2177,-2.2193,-2.2212,-2.2229,-2.2242,-2.2248,-2.2251,-2.2243,-2.2251,-2.2278,-2.2283,-2.2287,-2.2286,-2.2244,-2.2244,-2.2221,-2.2221,-2.222]}]]